Location: Blangy-Tronville
(49.8790°N, 2.4226°E)
Time: 06:18:39
(UTC+00:00)

IRAS Rocket - Pass Details

Date: 18 November 2025
Orbit: 845 x 876 km, 100.1° (Epoch: 10 December)

Event Time Altitude Azimuth Distance (km) Brightness Sun altitude
Rises 17:35:46 0° 147° (SSE) 3,436 7.2 -14.7°
Reaches altitude 10° 17:38:10 10° 144° (SE) 2,499 6.4 -15.1°
Maximum altitude 17:43:35 57° 67° (ENE) 1,003 4.2 -16.0°
Drops below altitude 10° 17:48:59 10° 350° (N) 2,495 6.7 -16.8°
Sets 17:51:23 0° 346° (NNW) 3,431 7.4 -17.2°
